Flag for Germany Weather past 2 weeks in Mannheim, Baden-Württemberg, Germany

Now
70 °F

Sunny.


Feels Like: 70 °F
Forecast: 61 / 86 °F
Wind: 2 mph from North

Location: Baden Wurttemberg - Neuostheim

Current Time: Aug 4, 2015 at 7:50:04 AM

Latest Report: Aug 4, 2015 at 7:20 AM


Visibility: 10 mi

Pressure: 29.89 "Hg

Humidity: 69%

Dew point: 59 °F

Location of MannheimLocation

Historic Weather in Mannheim — Graph

°F

Mannheim temperature yesterday

Maximum temperature yesterday: 91 °F (at 5:20 PM)
Minimum temperature yesterday: 61 °F (at 5:50 AM)
Average temperature yesterday: 82 °F

Past Weeks' High & Low Weather Summary

 TemperatureHumidityPressure
High93 °F (Jul 22, 3:50 PM)94% (Jul 27, 8:50 AM)30.12 "Hg (Jul 27, 8:50 AM)
Low50 °F (Jul 30, 5:50 AM)22% (Aug 3, 3:50 PM)29.65 "Hg (Jul 24, 7:50 PM)
Average73 °F51%29.92 "Hg
* Reported Jul 20 6:20 AM — Aug 4 6:50 AM, Mannheim, Weather by CustomWeather, © 2015

Note: Actual official high and low records may vary slightly from our data, if they occured in-between our weather recording intervals... More about our weather records

Advertising

Mannheim weather history for previous 24 hours

 ConditionsComfort  
Time TempWeatherWind HumidityBarometerVisibility
6:50 AM
Tue, Aug 4
66 °FClear.2 mph73%29.89 "Hg10 mi
6:20 AM63 °FClear.No wind83%29.89 "Hg10 mi
5:50 AM64 °FClear.No wind78%29.89 "Hg10 mi
9:20 PM
Mon, Aug 3
82 °FSunny.2 mph35%29.95 "Hg10 mi
8:50 PM86 °FSunny.2 mph31%29.95 "Hg10 mi
8:20 PM88 °FSunny.3 mph27%29.95 "Hg10 mi
7:50 PM90 °FSunny.3 mph26%29.95 "Hg10 mi
7:20 PM90 °FPassing clouds.5 mph24%29.95 "HgN/A
6:50 PM91 °FHot.6 mph23%29.95 "HgN/A
6:20 PM91 °FPassing clouds.6 mph24%29.95 "HgN/A
5:20 PM91 °FPassing clouds.7 mph24%29.98 "HgN/A
4:50 PM90 °FSunny.6 mph27%29.98 "Hg10 mi
4:20 PM90 °FPassing clouds.8 mph24%29.98 "HgN/A
3:50 PM90 °FPassing clouds.8 mph22%29.98 "HgN/A
3:20 PM90 °FPassing clouds.9 mph24%30.01 "HgN/A
2:50 PM88 °FPassing clouds.9 mph27%30.01 "HgN/A
2:20 PM88 °FPassing clouds.7 mph29%30.01 "HgN/A
1:50 PM88 °FPassing clouds.9 mph31%30.01 "HgN/A
1:20 PM88 °FPassing clouds.8 mph31%30.01 "HgN/A
12:50 PM86 °FPassing clouds.6 mph35%30.04 "HgN/A
12:20 PM84 °FPassing clouds.7 mph33%30.04 "HgN/A
11:50 AM82 °FPassing clouds.6 mph35%30.04 "HgN/A
11:20 AM82 °FPassing clouds.7 mph32%30.04 "HgN/A
10:50 AM82 °FPassing clouds.8 mph35%30.04 "HgN/A
10:20 AM77 °FPassing clouds.5 mph44%30.04 "HgN/A
9:50 AM77 °FSunny.3 mph44%30.04 "Hg10 mi
9:20 AM73 °FSunny.2 mph50%30.04 "Hg10 mi
8:50 AM73 °FSunny.1 mph50%30.04 "Hg10 mi
8:20 AM70 °FSunny.3 mph57%30.04 "Hg10 mi
7:50 AM68 °FSunny.2 mph60%30.04 "Hg10 mi
7:20 AM66 °FSunny.1 mph68%30.04 "Hg10 mi
Weather by CustomWeather, © 2015

See weather overviewHow to use our weather pages